Content
SEND FEEDBACK

Daily
Averages
Monthly
Summary
United States of America

GRANBY, COLORADO


Home > North America > United States > Colorado
Elevation: 8210 feet     Latitude: 40 06N     Longitude: 105 56W

WEATHER
 
SELECT A DAY
Number of Records: 260,837;   Date Range: 8/13/03 - 7/31/14
 
SHARE

PRINT THIS DATA

[ ← Previous Day ]
WEATHER ALMANAC - MAY 13, 2014
[ Next Day → ]
[ °C ]   °F
Weather ElementAverageHighLow
Temperature30.2 °F41 °F (3:36 pm)17.6 °F (5:36 am)
Dewpoint17.8 °F26.6 °F (10:56 pm)10.4 °F (12:36 pm)
Humidity63.1 %93 % (3:55 am)33 % (1:16 pm)
Barometer30.46 in30.54 in (11:56 pm)30.38 in (2:56 am)
Wind Speed3.1 mph10.4 mph (11:56 am)
Wind Gust16.1 mph (6:16 pm)
Weather ElementAverage
Visibility10 mi
Wind DirectionSSE (155.9 °)

Weather ElementTotal
Precipitation---
Heating Degree Days35.7 (Base 65)
Averaged from 61 records on May 13, 2014
WEATHER CONDITIONS BREAKOUT
WIND DIRECTION BREAKOUT
WEATHER BY HOUR - MAY 13, 2014
[ °C ]   °F
Local TimeTemperatureDewpointHumidityBarometerVisibilityWind DirectionWind SpeedGust SpeedPrecipitationEventsConditions
12:35 AM24.8 °F15.8 °F69 %30.39 in10.0 miNorth (350°)3.5 mphClear
12:56 AM26.6 °F14.0 °F59 %30.39 in10.0 miCalmScattered Clouds
1:36 AM23.0 °F14.0 °F68 %30.40 in10.0 miCalmScattered Clouds
1:56 AM23.0 °F14.0 °F68 %30.39 in10.0 miCalmScattered Clouds
2:16 AM23.0 °F14.0 °F68 %30.39 in10.0 miCalmClear
2:36 AM21.2 °F14.0 °F74 %30.39 in10.0 miCalmClear
2:56 AM19.4 °F14.0 °F80 %30.38 in10.0 miCalmScattered Clouds
3:15 AM19.4 °F15.8 °F86 %30.39 in10.0 miCalmMostly Cloudy
3:36 AM19.4 °F15.8 °F86 %30.39 in7.0 miCalmScattered Clouds
3:55 AM19.4 °F17.6 °F93 %30.40 in10.0 miCalmMostly Cloudy
4:16 AM19.4 °F15.8 °F86 %30.40 in10.0 miWSW (240°)3.5 mphMostly Cloudy
4:36 AM19.4 °F14.0 °F80 %30.40 in10.0 miWSW (240°)3.5 mphMostly Cloudy
4:56 AM19.4 °F14.0 °F80 %30.41 in10.0 miWest (270°)3.5 mphScattered Clouds
5:16 AM19.4 °F14.0 °F80 %30.41 in10.0 miCalmScattered Clouds
5:36 AM17.6 °F14.0 °F86 %30.41 in10.0 miCalmMostly Cloudy
5:56 AM17.6 °F14.0 °F86 %30.42 in10.0 miCalmMostly Cloudy
6:16 AM17.6 °F14.0 °F86 %30.43 in10.0 miCalmMostly Cloudy
7:16 AM19.4 °F15.8 °F86 %30.46 in10.0 miCalmOvercast
7:36 AM19.4 °F15.8 °F86 %30.47 in10.0 miCalmMostly Cloudy
7:56 AM19.4 °F15.8 °F86 %30.47 in10.0 miCalmScattered Clouds
8:16 AM23.0 °F15.8 °F74 %30.47 in10.0 miCalmClear
8:56 AM26.6 °F17.6 °F69 %30.48 in10.0 miWest (260°)3.5 mphClear
10:36 AM32.0 °F19.4 °F60 %30.48 in10.0 miCalmClear
10:56 AM33.8 °F19.4 °F56 %30.49 in10.0 miCalmClear
11:35 AM35.6 °F14.0 °F41 %30.48 in10.0 miNW (320°)6.9 mphClear
11:56 AM35.6 °F14.0 °F41 %30.48 in10.0 miNNW (330°)10.4 mphClear
12:16 PM35.6 °F12.2 °F38 %30.49 in10.0 miNNW (330°)8.1 mphClear
12:36 PM35.6 °F10.4 °F35 %30.48 in10.0 miNW (320°)4.6 mphClear
12:56 PM35.6 °F10.4 °F35 %30.48 in10.0 miNW (320°)4.6 mphClear
1:16 PM37.4 °F10.4 °F33 %30.48 in10.0 miNNW (340°)4.6 mphClear
1:36 PM37.4 °F14.0 °F38 %30.48 in10.0 miNW (320°)4.6 mphClear
1:55 PM37.4 °F14.0 °F38 %30.47 in10.0 miNNW (330°)5.8 mphClear
2:16 PM37.4 °F14.0 °F38 %30.47 in10.0 miNNW (330°)10.4 mphClear
2:36 PM37.4 °F14.0 °F38 %30.46 in10.0 miNW (320°)4.6 mphClear
2:56 PM37.4 °F17.6 °F45 %30.46 in10.0 miNW (320°)6.9 mphClear
3:16 PM39.2 °F17.6 °F42 %30.46 in10.0 miNW (320°)5.8 mphClear
3:36 PM41.0 °F17.6 °F39 %30.45 in10.0 miWNW (300°)5.8 mphClear
3:56 PM41.0 °F15.8 °F36 %30.45 in10.0 miWest (280°)6.9 mphClear
4:16 PM41.0 °F17.6 °F39 %30.45 in10.0 miNNW (330°)5.8 mphClear
4:36 PM41.0 °F17.6 °F39 %30.45 in10.0 miNW (310°)4.6 mphClear
4:55 PM41.0 °F17.6 °F39 %30.45 in10.0 miWest (280°)4.6 mphClear
5:16 PM41.0 °F21.2 °F45 %30.45 in10.0 miNW (310°)5.8 mphClear
5:36 PM41.0 °F21.2 °F45 %30.45 in10.0 miNW (310°)8.1 mphClear
5:55 PM39.2 °F23.0 °F52 %30.45 in10.0 miNW (320°)6.9 mphClear
6:16 PM35.6 °F23.0 °F60 %30.46 in10.0 miNW (320°)10.4 mph16.1 mphClear
6:36 PM35.6 °F23.0 °F60 %30.47 in10.0 miWNW (290°)8.1 mphClear
6:56 PM35.6 °F23.0 °F60 %30.47 in10.0 miWNW (300°)9.2 mphClear
7:16 PM35.6 °F21.2 °F56 %30.47 in10.0 miWNW (300°)6.9 mphScattered Clouds
7:36 PM33.8 °F23.0 °F65 %30.48 in10.0 miCalmClear
7:56 PM33.8 °F23.0 °F65 %30.48 in10.0 miWNW (300°)4.6 mphClear
8:16 PM33.8 °F23.0 °F65 %30.49 in10.0 miCalmClear
8:56 PM32.0 °F23.0 °F69 %30.49 in10.0 miCalmClear
9:16 PM30.2 °F23.0 °F75 %30.50 in10.0 miEast (80°)3.5 mphScattered Clouds
9:36 PM32.0 °F24.8 °F75 %30.51 in10.0 miCalmMostly Cloudy
9:56 PM32.0 °F23.0 °F69 %30.51 in10.0 miSW (220°)3.5 mphMostly Cloudy
10:16 PM32.0 °F24.8 °F75 %30.51 in10.0 miCalmMostly Cloudy
10:36 PM30.2 °F23.0 °F75 %30.52 in10.0 miCalmScattered Clouds
10:56 PM30.2 °F26.6 °F86 %30.53 in10.0 miCalmMostly Cloudy
11:16 PM30.2 °F26.6 °F86 %30.53 in10.0 miCalmScattered Clouds
11:36 PM30.2 °F23.0 °F75 %30.53 in10.0 miCalmScattered Clouds
11:56 PM30.2 °F26.6 °F86 %30.54 in10.0 miCalmClear
Hourly data recorded from K20V, located miles away from Granby, Colorado







STORIES FROM OUR PARTNERS